Regional Weather Roundup
Issued by NWS Bismarck, ND

Current Version | Previous Version | Text Only | Print | Product List | Glossary On
Versions: 1 2 3 4 5 6 7 8 9 10 11 12 13 14 15 16 17 18 19 20 21 22 23 24 25 26 27 28 29 30 31 32 33 34 35 36 37 38 39 40 41 42 43 44 45 46 47 48 49 50
000
ASUS43 KBIS 251110
RWRBIS

NWR BROADCAST TEXT
NATIONAL WEATHER SERVICE BISMARCK ND
600 AM CDT TUE JUL 25 2017

NOTE: "FAIR" INDICATES FEW OR NO CLOUDS BELOW 12,000 FEET WITH NO
SIGNIFICANT WEATHER AND/OR OBSTRUCTIONS TO VISIBILITY.


CITY           SKY/WX    TMP DP  RH WIND       PRES   REMARKS
WILLISTON      CLOUDY    64  46  52 N7        29.98R
MINOT          CLOUDY    64  55  72 W7        29.89F
MINOT AFB      CLOUDY    64  52  66 W7        29.88F
BISMARCK       CLEAR     65  64  97 E5        29.87R
DICKINSON      CLOUDY    65  52  62 N5        29.95R
GARRISON         N/A     62  55  77 N9        29.89R
HETTINGER ARPT MOCLDY    67  60  78 N9        29.94R
JAMESTOWN      CLEAR     65  63  93 CALM      29.85R
HAZEN          FAIR      66  57  72 NE10      29.91S
LINTON         FAIR     N/A N/A N/A W5        29.90R
MANDAN         FAIR      66  66 100 SE3       29.88R
STANLEY        FAIR      59  57  94 W7        29.98R
TIOGA          FAIR      61  48  63 VRB3G12   29.97R
WATFORD CITY   FAIR      61  57  88 CALM      29.95S
$$

CITY           SKY/WX    TMP DP  RH WIND       PRES   REMARKS
GRAND FORKS    CLOUDY    65  65 100 CALM      29.86R
GRAND FORKS AF CLOUDY    64  64  99 CALM      29.88R
DEVILS LAKE    CLOUDY    67  65  93 S5        29.87R
FARGO          PTCLDY    68  64  87 SE13G21   29.85S
CAVALIER       LGT RAIN  66  66 100 S9        29.81S
GRAFTON        FAIR      66  66 100 S10       29.85F
GWINNER        SUNNY     64  63  94 CALM      29.82F
LANGDON        FAIR      66  66 100 W6        29.87R
ROLLA            N/A     57  57 100 SW3       29.89R
$$

CITY           SKY/WX    TMP DP  RH WIND       PRES   REMARKS
ABERDEEN       CLEAR     67  65  93 SE6       29.82S
MOBRIDGE       CLOUDY    66  64  93 N6        29.82R
BUFFALO          N/A     72  61  68 NE12      29.85F
RAPID CITY     CLEAR     69  60  73 N14       29.88R
GLASGOW        CLOUDY    58  46  64 N12       30.01R THUNDER
SIDNEY         PTCLDY    66  45  46 N9        29.97R
WOLF POINT     CLOUDY    63  48  58 CALM      30.00S
GLENDIVE       CLEAR     67  43  41 N15       29.96R
MILES CITY     CLEAR     69  44  40 NE17      29.92R
BAKER          CLOUDY    69  50  50 NE18      29.92R
$$

CITY           SKY/WX    TMP DP  RH WIND       PRES   REMARKS
BILLINGS       PTCLDY    66  44  45 N13       30.00R
GREAT FALLS    PTCLDY    48  36  63 NW6       30.16R
REGINA         MOCLDY    57  48  72 W17G24    29.89R
ESTEVAN        PTCLDY    54  45  71 NW14      29.93S
$$




USA.gov is the U.S. government's official web portal to all federal, state and local government web resources and services.